Weather History for KLKV - December, 2012

Change the Weather History Date:

Wednesday, December 5, 2012

  Actual Average Record
Temperature  
Mean Temperature 40 °F -  
Max Temperature 48 °F 39 °F 62 °F (1939)
Min Temperature 33 °F 22 °F -6 °F (1972)
Degree Days  
Heating Degree Days 24    
Moisture  
Dew Point 38 °F    
Average Humidity 91    
Maximum Humidity 100    
Minimum Humidity 71    
Precipitation  
Precipitation 0.04 in - - ()
Sea Level Pressure  
Sea Level Pressure 30.13 in    
Wind  
Wind Speed 11 mph (SSE)    
Max Wind Speed 18 mph    
Max Gust Speed 23 mph    
Visibility 10 miles    
Events      
Averages and records for this station are not official NWS values.
T = Trace of Precipitation, MM = Missing Value Source: NWS Daily Summary

Daily Weather History Graph

Daily Weather History Graph

Search for Another Location

Airport or City:

Trip Planner

Search our weather history database for the weather conditions in past years. The results will help you decide how hot, cold, wet, or windy it might be!

Date:

Astronomy

Dec. 05, 2012 Rise Set
Actual Time 7:15 AM PST 4:29 PM PST
Civil Twilight 6:43 AM PST 5:01 PM PST
Nautical Twilight 6:08 AM PST 5:36 PM PST
Astronomical Twilight 5:34 AM PST 6:10 PM PST
Moon 11:30 PM PST (12/5) 11:36 AM PST (12/5)
Length of Visible Light 10h 17m
Length of Day
9h 14m
Waning Gibbous, 58% of the Moon is Illuminated
Dec 5
Waning Gibbous
Dec 6
Last Quarter
Dec 13
New
Dec 19
First Quarter
Dec 28
Full

Hourly Weather History & Observations

Time (PST) Temp. Windchill Dew Point Humidity Pressure Visibility Wind Dir Wind Speed Gust Speed Precip Events Conditions
12:15 AM 39.2 °F 31.6 °F 37.4 °F 93% 30.08 in 10.0 mi SSW 12.7 mph - 0.02 in   Overcast
12:35 AM 39.2 °F 32.5 °F 37.4 °F 93% 30.08 in 10.0 mi SSW 10.4 mph - 0.02 in   Overcast
12:55 AM 39.2 °F 33.0 °F 37.4 °F 93% 30.08 in 10.0 mi South 9.2 mph - 0.03 in   Overcast
1:15 AM 39.2 °F 33.6 °F 37.4 °F 93% 30.09 in 10.0 mi SSW 8.1 mph - N/A   Overcast
1:35 AM 39.2 °F 34.2 °F 37.4 °F 93% 30.10 in 10.0 mi South 6.9 mph - N/A   Overcast
1:55 AM 39.2 °F 34.2 °F 37.4 °F 93% 30.11 in 10.0 mi SSE 6.9 mph - 0.01 in   Overcast
2:15 AM 39.2 °F 34.2 °F 37.4 °F 93% 30.11 in 10.0 mi SSE 6.9 mph - N/A   Overcast
2:35 AM 39.2 °F 32.5 °F 37.4 °F 93% 30.12 in 10.0 mi SSE 10.4 mph - N/A   Overcast
2:55 AM 39.2 °F 33.0 °F 37.4 °F 93% 30.12 in 10.0 mi SSE 9.2 mph - N/A   Overcast
3:15 AM 39.2 °F 31.2 °F 37.4 °F 93% 30.12 in 10.0 mi SSE 13.8 mph - N/A   Overcast
3:35 AM 39.2 °F 30.5 °F 37.4 °F 93% 30.11 in 10.0 mi SSE 16.1 mph - N/A   Overcast
3:55 AM 39.2 °F 29.8 °F 37.4 °F 93% 30.10 in 10.0 mi SSE 18.4 mph 23.0 mph N/A   Overcast
4:15 AM 37.4 °F 28.2 °F 37.4 °F 100% 30.09 in 10.0 mi SSE 16.1 mph - N/A   Overcast
4:35 AM 37.4 °F 29.3 °F 35.6 °F 93% 30.09 in 10.0 mi SSE 12.7 mph - N/A   Overcast
4:55 AM 37.4 °F 29.8 °F 37.4 °F 100% 30.09 in 10.0 mi SE 11.5 mph - N/A   Overcast
6:35 AM 39.2 °F 32.5 °F 37.4 °F 93% 30.12 in 10.0 mi SSE 10.4 mph - N/A   Overcast
6:55 AM 39.2 °F 32.0 °F 37.4 °F 93% 30.12 in 10.0 mi SSE 11.5 mph - N/A   Overcast
7:15 AM 39.2 °F 32.5 °F 37.4 °F 93% 30.12 in 10.0 mi SSE 10.4 mph - N/A   Overcast
7:35 AM 39.2 °F 32.0 °F 37.4 °F 93% 30.12 in 10.0 mi SE 11.5 mph - N/A   Overcast
7:55 AM 39.2 °F 31.2 °F 37.4 °F 93% 30.13 in 10.0 mi SSE 13.8 mph - N/A   Overcast
8:15 AM 39.2 °F 32.5 °F 39.2 °F 100% 30.14 in 10.0 mi SSE 10.4 mph - N/A   Overcast
8:35 AM 39.2 °F 31.2 °F 39.2 °F 100% 30.14 in 10.0 mi SSE 13.8 mph - N/A   Overcast
8:55 AM 39.2 °F 31.2 °F 39.2 °F 100% 30.15 in 10.0 mi SSE 13.8 mph - N/A   Overcast
9:15 AM 41.0 °F 33.5 °F 39.2 °F 93% 30.15 in 10.0 mi SSE 13.8 mph 18.4 mph N/A   Overcast
9:35 AM 42.8 °F 35.4 °F 39.2 °F 87% 30.15 in 10.0 mi South 15.0 mph 18.4 mph N/A   Overcast
9:55 AM 42.8 °F 36.2 °F 39.2 °F 87% 30.16 in 10.0 mi SSE 12.7 mph 18.4 mph N/A   Overcast
10:15 AM 42.8 °F 36.6 °F 41.0 °F 93% 30.16 in 10.0 mi South 11.5 mph - N/A   Overcast
10:35 AM 42.8 °F 37.0 °F 39.2 °F 87% 30.16 in 10.0 mi SSE 10.4 mph - N/A   Overcast
10:55 AM 42.8 °F 36.2 °F 41.0 °F 93% 30.16 in 10.0 mi SSE 12.7 mph 16.1 mph N/A   Overcast
11:15 AM 44.6 °F 38.8 °F 41.0 °F 87% 30.16 in 10.0 mi SSE 11.5 mph - N/A   Mostly Cloudy
11:35 AM 44.6 °F 39.2 °F 41.0 °F 87% 30.15 in 10.0 mi SSE 10.4 mph - N/A   Mostly Cloudy
11:55 AM 44.6 °F 38.4 °F 42.8 °F 93% 30.15 in 10.0 mi SSE 12.7 mph - N/A   Mostly Cloudy
12:15 PM 44.6 °F 38.1 °F 42.8 °F 93% 30.15 in 10.0 mi SSE 13.8 mph - N/A   Overcast
12:35 PM 46.4 °F 41.5 °F 42.8 °F 87% 30.14 in 10.0 mi SSE 10.4 mph - N/A   Mostly Cloudy
12:55 PM 46.4 °F 40.1 °F 42.8 °F 87% 30.13 in 10.0 mi SSE 15.0 mph - N/A   Mostly Cloudy
1:15 PM 48.2 °F - 42.8 °F 82% 30.13 in 10.0 mi SSE 11.5 mph - N/A   Mostly Cloudy
1:35 PM 48.2 °F - 41.0 °F 76% 30.13 in 10.0 mi South 9.2 mph - N/A   Mostly Cloudy
1:55 PM 48.2 °F - 42.8 °F 82% 30.12 in 10.0 mi South 12.7 mph 16.1 mph N/A   Mostly Cloudy
2:15 PM 48.2 °F - 41.0 °F 76% 30.12 in 10.0 mi South 11.5 mph - N/A   Scattered Clouds
2:35 PM 48.2 °F - 39.2 °F 71% 30.11 in 10.0 mi South 12.7 mph 17.3 mph N/A   Scattered Clouds
2:55 PM 46.4 °F 40.4 °F 39.2 °F 76% 30.11 in 10.0 mi South 13.8 mph 17.3 mph N/A   Mostly Cloudy
3:15 PM 44.6 °F 38.8 °F 39.2 °F 81% 30.11 in 10.0 mi South 11.5 mph - N/A   Scattered Clouds
3:35 PM 46.4 °F 40.1 °F 39.2 °F 76% 30.11 in 10.0 mi South 15.0 mph - N/A   Scattered Clouds
3:55 PM 44.6 °F 39.2 °F 39.2 °F 81% 30.12 in 10.0 mi South 10.4 mph - N/A   Partly Cloudy
4:15 PM 42.8 °F 37.5 °F 37.4 °F 81% 30.12 in 10.0 mi South 9.2 mph - N/A   Clear
4:35 PM 41.0 °F 35.2 °F 37.4 °F 87% 30.12 in 10.0 mi South 9.2 mph - N/A   Clear
4:55 PM 39.2 °F 34.2 °F 37.4 °F 93% 30.12 in 10.0 mi SSE 6.9 mph - N/A   Clear
5:15 PM 35.6 °F 29.2 °F 35.6 °F 100% 30.12 in 10.0 mi SE 8.1 mph - N/A   Clear
5:35 PM 37.4 °F 30.8 °F 37.4 °F 100% 30.12 in 10.0 mi SSE 9.2 mph - N/A   Clear
5:55 PM 37.4 °F 30.3 °F 37.4 °F 100% 30.12 in 10.0 mi SSE 10.4 mph - N/A   Clear
6:15 PM 39.2 °F 31.6 °F 37.4 °F 93% 30.13 in 10.0 mi SSE 12.7 mph - N/A   Clear
6:35 PM 37.4 °F 29.8 °F 35.6 °F 93% 30.12 in 10.0 mi SSE 11.5 mph - N/A   Clear
6:55 PM 37.4 °F 29.8 °F 35.6 °F 93% 30.13 in 10.0 mi SSE 11.5 mph - N/A   Partly Cloudy
7:15 PM 37.4 °F 30.3 °F 35.6 °F 93% 30.13 in 10.0 mi SSE 10.4 mph - N/A   Scattered Clouds
7:35 PM 37.4 °F 31.4 °F 35.6 °F 93% 30.13 in 10.0 mi SSE 8.1 mph - N/A   Overcast
7:55 PM 37.4 °F 30.3 °F 35.6 °F 93% 30.14 in 10.0 mi SSE 10.4 mph - N/A   Overcast
8:15 PM 37.4 °F 30.3 °F 35.6 °F 93% 30.14 in 10.0 mi SSE 10.4 mph - N/A   Mostly Cloudy
8:35 PM 35.6 °F 29.2 °F 33.8 °F 93% 30.14 in 10.0 mi South 8.1 mph - N/A   Partly Cloudy
8:55 PM 35.6 °F 29.2 °F 33.8 °F 93% 30.14 in 10.0 mi South 8.1 mph - N/A   Clear
9:15 PM 33.8 °F 26.4 °F 33.8 °F 100% 30.14 in 10.0 mi SSE 9.2 mph - N/A   Clear
9:35 PM 35.6 °F 28.6 °F 33.8 °F 93% 30.14 in 10.0 mi SSE 9.2 mph - N/A   Clear
9:55 PM 35.6 °F 28.0 °F 33.8 °F 93% 30.14 in 10.0 mi SSE 10.4 mph - N/A   Clear
10:15 PM 35.6 °F 28.0 °F 33.8 °F 93% 30.13 in 10.0 mi South 10.4 mph - N/A   Clear
10:35 PM 35.6 °F 28.0 °F 33.8 °F 93% 30.14 in 10.0 mi South 10.4 mph - N/A   Clear
10:55 PM 33.8 °F 27.7 °F 32.0 °F 93% 30.14 in 10.0 mi South 6.9 mph - N/A   Scattered Clouds
11:15 PM 35.6 °F 29.2 °F 33.8 °F 93% 30.13 in 10.0 mi SSE 8.1 mph - N/A   Mostly Cloudy
11:35 PM 37.4 °F 30.8 °F 35.6 °F 93% 30.13 in 10.0 mi South 9.2 mph - N/A   Overcast
11:55 PM 35.6 °F 29.2 °F 33.8 °F 93% 30.13 in 10.0 mi SSE 8.1 mph - N/A   Overcast